| time (UTC) | temp C | wind direction | speed KPH | gust KPH | rain 1hr cm | rain 24hr cm | rain mn cm | humidity % | barometer mb |
| 20260906192710 | 29 | 123 | 11.3 | 19.3 | 0.00 | 0.08 | 0.08 | 63 | 1012.1 |
| 20260906191710 | 29 | 62 | 9.7 | 20.9 | 0.00 | 0.08 | 0.08 | 67 | 1012.2 |
| 20260906190711 | 30 | 35 | 8.0 | 16.1 | 0.00 | 0.08 | 0.08 | 65 | 1012.4 |
| 20260906184711 | 29 | 47 | 6.4 | 12.9 | 0.00 | 0.08 | 0.08 | 69 | 1012.3 |
| 20260906183711 | 29 | 55 | 4.8 | 12.9 | 0.00 | 0.08 | 0.08 | 68 | 1012.5 |
| 20260906182711 | 28 | 315 | 6.4 | 11.3 | 0.00 | 0.08 | 0.08 | 72 | 1012.8 |
| 20260906181711 | 28 | 316 | 6.4 | 9.7 | 0.00 | 0.08 | 0.08 | 72 | 1013.1 |
| 20260906180710 | 28 | 326 | 3.2 | 12.9 | 0.00 | 0.08 | 0.08 | 72 | 1013.2 |
| 20260906175710 | 27 | 302 | 3.2 | 11.3 | 0.00 | 0.08 | 0.08 | 74 | 1013.3 |
| 20260906174710 | 27 | 58 | 3.2 | 8.0 | 0.00 | 0.08 | 0.08 | 77 | 1013.3 |
| 20260906173710 | 27 | 82 | 4.8 | 8.0 | 0.00 | 0.08 | 0.08 | 75 | 1013.3 |
| 20260906172710 | 27 | 47 | 4.8 | 11.3 | 0.00 | 0.08 | 0.08 | 76 | 1013.3 |
| 20260906171711 | 26 | 59 | 3.2 | 14.5 | 0.00 | 0.08 | 0.08 | 75 | 1013.4 |
| 20260906170710 | 26 | 28 | 8.0 | 12.9 | 0.00 | 0.08 | 0.08 | 75 | 1013.2 |
| 20260906164710 | 26 | 60 | 4.8 | 9.7 | 0.00 | 0.08 | 0.08 | 78 | 1013.8 |
| 20260906162711 | 26 | 38 | 6.4 | 9.7 | 0.00 | 0.08 | 0.08 | 80 | 1013.7 |
| 20260906160710 | 25 | 110 | 4.8 | 9.7 | 0.00 | 0.08 | 0.08 | 83 | 1013.6 |
| 20260906155710 | 25 | 78 | 3.2 | 4.8 | 0.00 | 0.08 | 0.08 | 84 | 1013.7 |
| 20260906154710 | 25 | 78 | 4.8 | 14.5 | 0.00 | 0.08 | 0.08 | 86 | 1013.0 |
| 20260906153710 | 24 | 49 | 3.2 | 8.0 | 0.00 | 0.08 | 0.08 | 86 | 1013.0 |
| 20260906151710 | 23 | 103 | 1.6 | 3.2 | 0.00 | 0.08 | 0.08 | 89 | 1013.0 |
| 20260906150710 | 23 | 68 | 0.0 | 3.2 | 0.00 | 0.08 | 0.08 | 90 | 1013.1 |
| 20260906145710 | 23 | 68 | 1.6 | 3.2 | 0.03 | 0.08 | 0.08 | 90 | 1013.1 |
| 20260906144710 | 23 | 254 | 0.0 | 4.8 | 0.08 | 0.08 | 0.08 | 90 | 1012.9 |
| 20260906142710 | 23 | 328 | 1.6 | 4.8 | 0.08 | 0.08 | 0.08 | 89 | 1012.9 |
| 20260906141710 | 23 | 302 | 1.6 | 4.8 | 0.08 | 0.08 | 0.08 | 88 | 1012.8 |
| 20260906140710 | 23 | 302 | 0.0 | 1.6 | 0.08 | 0.08 | 0.08 | 88 | 1013.2 |
| 20260906134711 | 23 | 276 | 8.0 | 14.5 | 0.00 | 0.00 | 0.00 | 86 | 1013.4 |
| 20260906133711 | 23 | 223 | 4.8 | 19.3 | 0.00 | 0.00 | 0.00 | 85 | 1013.7 |
| 20260906125710 | 24 | 192 | 6.4 | 11.3 | 0.00 | 0.00 | 0.00 | 82 | 1013.0 |
| 20260906124711 | 24 | 237 | 3.2 | 11.3 | 0.00 | 0.00 | 0.00 | 83 | 1012.9 |
| 20260906123710 | 24 | 280 | 4.8 | 12.9 | 0.00 | 0.00 | 0.00 | 82 | 1012.9 |
| 20260906122711 | 25 | 265 | 3.2 | 20.9 | 0.00 | 0.00 | 0.00 | 81 | 1012.3 |
| 20260906121711 | 25 | 232 | 3.2 | 14.5 | 0.00 | 0.00 | 0.00 | 80 | 1012.3 |
| 20260906120711 | 25 | 139 | 3.2 | 8.0 | 0.00 | 0.00 | 0.00 | 80 | 1011.6 |
| 20260906115711 | 25 | 105 | 3.2 | 4.8 | 0.00 | 0.00 | 0.00 | 79 | 1011.6 |
| 20260906114711 | 25 | 140 | 3.2 | 4.8 | 0.00 | 0.00 | 0.00 | 79 | 1011.4 |
| 20260906111711 | 25 | 142 | 4.8 | 4.8 | 0.00 | 0.00 | 0.00 | 81 | 1011.1 |
| 20260906110711 | 24 | 102 | 4.8 | 4.8 | 0.00 | 0.00 | 0.00 | 81 | 1011.2 |
| 20260906105710 | 24 | 128 | 1.6 | 4.8 | 0.00 | 0.00 | 0.00 | 83 | 1011.1 |
| 20260906104711 | 24 | 128 | 1.6 | 3.2 | 0.00 | 0.00 | 0.00 | 84 | 1011.2 |
| 20260906103710 | 24 | 105 | 0.0 | 3.2 | 0.00 | 0.00 | 0.00 | 85 | 1011.1 |
| 20260906101711 | 23 | 89 | 1.6 | 4.8 | 0.00 | 0.00 | 0.00 | 87 | 1011.1 |
| 20260906100711 | 23 | 91 | 1.6 | 3.2 | 0.00 | 0.00 | 0.00 | 88 | 1011.4 |
| 20260906095711 | 23 | 74 | 1.6 | 4.8 | 0.00 | 0.00 | 0.00 | 88 | 1011.1 |
| 20260906094710 | 23 | 44 | 1.6 | 4.8 | 0.00 | 0.00 | 0.00 | 87 | 1011.0 |
| 20260906093710 | 24 | 101 | 0.0 | 3.2 | 0.00 | 0.00 | 0.00 | 87 | 1010.9 |
| 20260906092711 | 24 | 101 | 0.0 | 0.0 | 0.00 | 0.00 | 0.00 | 87 | 1010.8 |
| 20260906091710 | 24 | 83 | 0.0 | 0.0 | 0.00 | 0.00 | 0.00 | 87 | 1010.9 |
| 20260906090711 | 24 | 83 | 0.0 | 0.0 | 0.00 | 0.00 | 0.00 | 87 | 1010.7 |
| 20260906085711 | 24 | 83 | 0.0 | 1.6 | 0.00 | 0.00 | 0.00 | 87 | 1010.9 |
| 20260906084710 | 25 | 106 | 0.0 | 0.0 | 0.00 | 0.00 | 0.00 | 87 | 1010.9 |
| 20260906083710 | 25 | 107 | 0.0 | 0.0 | 0.00 | 0.00 | 0.00 | 87 | 1010.9 |
| 20260906082711 | 25 | 107 | 0.0 | 3.2 | 0.00 | 0.00 | 0.00 | 87 | 1011.0 |
| 20260906081711 | 25 | 108 | 0.0 | 3.2 | 0.00 | 0.00 | 0.00 | 87 | 1011.2 |
| 20260906080710 | 25 | 104 | 0.0 | 4.8 | 0.00 | 0.00 | 0.00 | 86 | 1011.2 |
| 20260906075711 | 25 | 74 | 1.6 | 3.2 | 0.00 | 0.00 | 0.00 | 86 | 1011.3 |
| 20260906074711 | 25 | 69 | 1.6 | 3.2 | 0.00 | 0.00 | 0.00 | 85 | 1011.2 |
| 20260906073710 | 26 | 50 | 1.6 | 4.8 | 0.00 | 0.00 | 0.00 | 85 | 1011.0 |
| 20260906070711 | 26 | 119 | 1.6 | 11.3 | 0.00 | 0.00 | 0.00 | 85 | 1011.1 |
| 20260906064711 | 26 | 125 | 6.4 | 16.1 | 0.00 | 0.00 | 0.00 | 85 | 1010.9 |
| 20260906063711 | 26 | 124 | 4.8 | 14.5 | 0.00 | 0.00 | 0.00 | 86 | 1011.0 |
| 20260906062710 | 26 | 120 | 8.0 | 14.5 | 0.00 | 0.00 | 0.00 | 87 | 1011.0 |
| 20260906061710 | 25 | 86 | 1.6 | 4.8 | 0.00 | 0.00 | 0.00 | 87 | 1011.2 |
| 20260906060710 | 25 | 115 | 3.2 | 9.7 | 0.00 | 0.00 | 0.00 | 87 | 1011.0 |
| 20260906055711 | 25 | 111 | 3.2 | 9.7 | 0.00 | 0.00 | 0.00 | 87 | 1011.1 |
| 20260906054711 | 25 | 109 | 3.2 | 11.3 | 0.00 | 0.00 | 0.00 | 87 | 1011.2 |
| 20260906053711 | 26 | 88 | 6.4 | 12.9 | 0.00 | 0.00 | 0.00 | 86 | 1011.2 |
| 20260906052711 | 26 | 89 | 3.2 | 11.3 | 0.00 | 0.00 | 0.00 | 86 | 1011.2 |
| 20260906045711 | 26 | 96 | 3.2 | 9.7 | 0.00 | 0.00 | 0.00 | 85 | 1011.2 |
| 20260906044710 | 26 | 70 | 4.8 | 8.0 | 0.00 | 0.00 | 0.00 | 85 | 1011.3 |
| 20260906043711 | 26 | 94 | 3.2 | 11.3 | 0.00 | 0.00 | 0.00 | 84 | 1011.2 |
| 20260906042711 | 26 | 78 | 4.8 | 11.3 | 0.00 | 0.00 | 0.00 | 84 | 1011.3 |
| 20260906041711 | 26 | 107 | 4.8 | 11.3 | 0.00 | 0.00 | 0.00 | 83 | 1011.2 |
| 20260906040711 | 26 | 78 | 4.8 | 12.9 | 0.00 | 0.00 | 0.00 | 83 | 1011.2 |
| 20260906035711 | 27 | 87 | 6.4 | 14.5 | 0.00 | 0.00 | 0.00 | 82 | 1011.1 |
| 20260906034711 | 27 | 78 | 6.4 | 14.5 | 0.00 | 0.00 | 0.00 | 81 | 1011.0 |
| 20260906033711 | 27 | 65 | 4.8 | 12.9 | 0.00 | 0.00 | 0.00 | 80 | 1011.0 |
| 20260906032710 | 27 | 102 | 3.2 | 11.3 | 0.00 | 0.00 | 0.00 | 80 | 1011.0 |
| 20260906031710 | 27 | 89 | 3.2 | 19.3 | 0.00 | 0.00 | 0.00 | 80 | 1011.0 |
| 20260906030711 | 27 | 91 | 6.4 | 14.5 | 0.00 | 0.00 | 0.00 | 80 | 1010.8 |
| 20260906025711 | 27 | 92 | 6.4 | 12.9 | 0.00 | 0.00 | 0.00 | 79 | 1010.9 |
| 20260906023711 | 27 | 106 | 3.2 | 11.3 | 0.00 | 0.00 | 0.00 | 79 | 1010.4 |
| 20260906022710 | 28 | 61 | 6.4 | 12.9 | 0.00 | 0.00 | 0.00 | 78 | 1010.3 |
| 20260906020710 | 28 | 86 | 4.8 | 12.9 | 0.00 | 0.00 | 0.00 | 78 | 1009.9 |
| 20260906015710 | 29 | 69 | 3.2 | 11.3 | 0.00 | 0.00 | 0.00 | 77 | 1009.7 |
| 20260906014711 | 29 | 52 | 3.2 | 8.0 | 0.00 | 0.00 | 0.00 | 76 | 1009.4 |
| 20260906013710 | 30 | 63 | 3.2 | 11.3 | 0.00 | 0.00 | 0.00 | 74 | 1009.3 |
| 20260906012711 | 30 | 94 | 4.8 | 8.0 | 0.00 | 0.00 | 0.00 | 73 | 1009.2 |
| 20260906011711 | 30 | 67 | 3.2 | 4.8 | 0.00 | 0.00 | 0.00 | 72 | 1008.9 |
| 20260906005710 | 31 | 61 | 3.2 | 4.8 | 0.00 | 0.00 | 0.00 | 69 | 1009.0 |
| 20260906004710 | 31 | 110 | 3.2 | 12.9 | 0.00 | 0.00 | 0.00 | 68 | 1009.0 |
| 20260906003711 | 32 | 122 | 6.4 | 12.9 | 0.00 | 0.00 | 0.00 | 67 | 1009.1 |
| 20260906002711 | 32 | 127 | 8.0 | 12.9 | 0.00 | 0.00 | 0.00 | 66 | 1009.1 |
| 20260906001710 | 32 | 139 | 9.7 | 19.3 | 0.00 | 0.00 | 0.00 | 66 | 1008.8 |
| 20260906000710 | 32 | 146 | 11.3 | 20.9 | 0.00 | 0.00 | 0.00 | 65 | 1008.6 |
| 20260905235710 | 32 | 139 | 11.3 | 16.1 | 0.00 | 0.00 | 0.00 | 66 | 1008.7 |
| 20260905234711 | 32 | 146 | 8.0 | 19.3 | 0.00 | 0.00 | 0.00 | 64 | 1008.6 |
| 20260905232710 | 33 | 147 | 11.3 | 19.3 | 0.00 | 0.00 | 0.00 | 62 | 1008.6 |
| 20260905231710 | 33 | 174 | 14.5 | 19.3 | 0.00 | 0.00 | 0.00 | 61 | 1008.5 |
| 20260905230711 | 33 | 172 | 17.7 | 29.0 | 0.00 | 0.00 | 0.00 | 60 | 1008.6 |
| 20260905224711 | 33 | 140 | 14.5 | 24.1 | 0.00 | 0.00 | 0.00 | 60 | 1008.5 |
| 20260905223711 | 33 | 163 | 17.7 | 29.0 | 0.00 | 0.00 | 0.00 | 60 | 1008.6 |
| 20260905222711 | 33 | 142 | 16.1 | 27.4 | 0.00 | 0.00 | 0.00 | 59 | 1008.6 |
| 20260905221711 | 33 | 173 | 19.3 | 27.4 | 0.00 | 0.00 | 0.00 | 59 | 1008.8 |
| 20260905215710 | 33 | 185 | 16.1 | 32.2 | 0.00 | 0.00 | 0.00 | 61 | 1009.0 |
| 20260905214711 | 33 | 135 | 14.5 | 25.7 | 0.00 | 0.00 | 0.00 | 62 | 1009.0 |
| 20260905213710 | 33 | 118 | 14.5 | 32.2 | 0.00 | 0.00 | 0.00 | 61 | 1009.0 |
| 20260905212711 | 33 | 173 | 17.7 | 29.0 | 0.00 | 0.00 | 0.00 | 61 | 1009.1 |
| 20260905211710 | 33 | 125 | 16.1 | 29.0 | 0.00 | 0.00 | 0.00 | 60 | 1009.3 |
| 20260905210710 | 33 | 183 | 20.9 | 33.8 | 0.00 | 0.00 | 0.00 | 59 | 1009.3 |
| 20260905205711 | 32 | 147 | 14.5 | 35.4 | 0.00 | 0.00 | 0.00 | 62 | 1009.4 |
| 20260905204711 | 32 | 136 | 17.7 | 32.2 | 0.00 | 0.00 | 0.00 | 62 | 1009.4 |
| 20260905203710 | 32 | 122 | 24.1 | 33.8 | 0.00 | 0.00 | 0.00 | 61 | 1009.5 |
| 20260905202710 | 32 | 114 | 20.9 | 35.4 | 0.00 | 0.00 | 0.00 | 62 | 1009.6 |
| 20260905201711 | 32 | 131 | 14.5 | 32.2 | 0.00 | 0.00 | 0.00 | 62 | 1010.1 |
| 20260905200711 | 32 | 107 | 14.5 | 32.2 | 0.00 | 0.00 | 0.00 | 63 | 1010.6 |
| 20260905195710 | 31 | 149 | 19.3 | 37.0 | 0.00 | 0.00 | 0.00 | 62 | 1010.7 |
| 20260905194711 | 31 | 107 | 17.7 | 32.2 | 0.00 | 0.00 | 0.00 | 62 | 1010.9 |
| 20260905193710 | 31 | 93 | 11.3 | 24.1 | 0.00 | 0.00 | 0.00 | 60 | 1011.2 |